SCP
0 0 0 0 0 0 0 0 0 0 0 0 0 0 0 0 0 0 0 0 0 0 0 0 0 0 0 0 0 0 0 0 0 0 0 0 0 0 0 0 0 0 0
0 0 0 0 0 0 0 0 0 0 0 0 0 0 0 0 0 0 0 0 0 0 0 0 0 0 0 0 0 0 0 0 0 0 0 0 0 0 0 0 0 0 0
0 0 0 0 0 0 0 0 0 0 0 0 0 0 0 0 0 0 0 0 0 0 0 0 0 0 0 0 0 0 0 0 0 0 0 0 0 0 0 0 0 0 0
0 0 0 0 0 0 0 0 0 0 0 0 0 0 0 0 0 0 0 0 0 0 0 0 0 0 0 0 0 0 0 0 0 0 0 0 0 0 0 0 0 0 0
0 0 0 0 0 0 0 0 0 0 0 0 0 0 0 0 0 0 0 0 0 0 0 0 0 0 0 0 0 0 0 0 0 0 0 0 0 0 0 0 0 0 0
0 0 0 0 0 0 0 0 0 0 0 0 0 0 0 0 0 0 0 0 0 0 0 0 0 0 0 0 0 0 0 0 0 0 0 0 0 0 0 0 0 0 0
0 0 0 0 0 0 0 0 0 0 0 0 0 0 0 0 0 0 0 0 0 0 0 0 0 0 0 0 0 0 0 0 0 0 0 0 0 0 0 0 0 0 0
0 0 0 0 0 0 0 0 0 0 0 0 0 0 0 0 0 0 0 0 0 0 0 0 0 0 0 0 0 0 0 0 0 0 0 0 0 0 0 0 0 0 0
0 0 0 0 0 0 0 0 0 0 0 0 0 0 0 0 0 0 0 0 0 0 0 0 0 0 0 0 0 0 0 0 0 0 0 0 0 0 0 0 0 0 0
0 0 0 0 0 0 0 0 0 0 0 0 0 0 0 0 0 0 0 0 0 0 0 0 0 0 0 0 0 0 0 0 0 0 0 0 0 0 0 0 0 0 0
0 0 0 0 0 0 0 0 0 0 0 0 0 0 0 0 0 0 0 0 0 0 0 0 0 0 0 0 0 0 0 0 0 0 0 0 0 0 0 0 0 0 0
0 0 0 0 0 0 0 0 0 0 0 0 0 0 0 0 0 0 0 0 0 0 0 0 0 0 0 0 0 0 0 0 0 0 0 0 0 0 0 0 0 0 0
0 0 0 0 0 0 0 0 0 0 0 0 0 0 0 0 0 0 0 0 0 0 0 0 0 0 0 0 0 0 0 0 0 0 0 0 0 0 0 0 0 0 0
0 0 0 0 0 0 0 0 0 0 0 0 0 0 0 0 0 0 0 0 0 0 0 0 0 0 0 0 0 0 0 0 0 0 0 0 0 0 0 0 0 0 0
0 0 0 0 0 0 0 0 0 0 0 0 0 0 0 0 0 0 0 0 0 0 0 0 0 0 0 0 0 0 0 0 0 0 0 0 0 0 0 0 0 0 0
0 0 0 0 0 0 0 0 0 0 0 0 0 0 0 0 0 0 0 0 0 0 0 0 0 0 0 0 0 0 0 0 0 0 0 0 0 0 0 0 0 0 0
0 0 0 0 0 0 0 0 0 0 0 0 0 0 0 0 0 0 0 0 0 0 0 0 0 0 0 0 0 0 0 0 0 0 0 0 0 0 0 0 0 0 0
0 0 0 0 0 0 0 0 0 0 0 0 0 0 0 0 0 0 0 0 0 0 0 0 0 0 0 0 0 0 0 0 0 0 0 0 0 0 0 0 0 0 0
0 0 0 0 0 0 0 0 0 0 0 0 0 0 0 0 0 0 0 0 0 0 0 0 0 0 0 0 0 0 0 0 0 0 0 0 0 0 0 0 0 0 0
0 0 0 0 0 0 0 0 0 0 0 0 0 0 0 0 0 0 0 0 0 0 0 0 0 0 0 0 0 0 0 0 0 0 0 0 0 0 0 0 0 0 0
0 0 0 0 0 0 0 0 0 0 0 0 0 0 0 0 0 0 0 0 0 0 0 0 0 0 0 0 0 0 0 0 0 0 0 0 0 0 0 0 0 0 0
0 0 0 0 0 0 0 0 0 0 0 0 0 0 0 0 0 0 0 0 0 0 0 0 0 0 0 0 0 0 0 0 0 0 0 0 0 0 0 0 0 0 0
0 0 0 0 0 0 0 0 0 0 0 0 0 0 0 0 0 0 0 0 0 0 0 0 0 0 0 0 0 0 0 0 0 0 0 0 0 0 0 0 0 0 0
0 0 0 0 0 0 0 0 0 0 0 0 0 0 0 0 0 0 0 0 0 0 0 0 0 0 0 0 0 0 0 0 0 0 0 0 0 0 0 0 0 0 0
0 0 0 0 0 0 0 0 0 0 0 0 0 0 0 0 0 0 0 0 0 0 0 0 0 0 0 0 0 0 0 0 0 0 0 0 0 0 0 0 0 0 0
0 0 0 0 0 0 0 0 0 0 0 0 0 0 0 0 0 0 0 0 0 0 0 0 0 0 0 0 0 0 0 0 0 0 0 0 0 0 0 0 0 0 0
Wind_Speed
7 7 7 7 9 10 11 12 12 10 8 7 8 8 8 8 9 9 12 12 11 11 9 7 8 8 7 7 9 8 10 9 9 10 11 12 12 12 10 10 12 14 14
10 9 9 9 10 11 12 13 13 12 11 9 9 9 9 9 8 8 10 12 12 11 8 9 7 7 6 8 8 8 8 8 9 10 12 10 11 9 10 13 14 14 14
12 11 11 10 10 11 12 11 13 13 13 12 9 8 8 7 7 8 8 10 10 10 9 9 8 7 7 7 8 9 9 9 10 9 9 10 11 14 11 13 13 15 14
12 12 11 11 10 11 11 13 14 14 12 11 10 11 9 8 7 6 6 7 9 10 9 9 8 8 7 8 8 9 9 9 9 8 7 9 13 12 13 12 13 16 16
12 12 11 11 10 10 10 12 13 13 12 12 11 11 9 7 5 5 6 6 6 8 9 8 8 8 7 8 9 9 9 8 8 8 9 10 10 13 15 17 15 13 13
12 12 11 10 10 9 10 10 12 12 11 11 11 11 10 8 7 7 6 5 4 5 9 8 8 7 7 8 9 9 9 8 9 8 8 9 10 12 13 17 18 16 14
13 13 13 12 10 10 10 10 12 12 11 11 11 10 9 8 7 6 6 6 5 6 9 8 8 8 8 8 9 8 8 8 9 9 9 9 10 11 12 14 16 19 16
13 13 12 11 10 10 10 10 11 11 10 9 9 8 7 5 5 6 6 6 5 6 8 9 8 9 9 9 9 7 8 8 9 11 11 10 10 10 11 12 15 17 18
14 13 12 11 11 10 10 10 10 10 9 8 8 7 7 6 6 6 6 5 5 5 8 8 9 9 9 10 10 8 10 10 10 11 12 11 10 10 11 11 12 15 19
14 13 11 11 10 9 9 9 9 9 8 7 6 5 6 6 5 5 6 6 6 7 8 9 10 10 10 11 11 10 10 12 12 10 13 13 11 11 11 12 12 13 15
15 13 11 11 10 10 9 9 8 8 7 6 6 6 5 5 5 5 6 6 7 8 9 9 10 11 11 12 11 11 12 13 14 13 14 15 15 13 12 12 12 13 14
13 12 12 11 11 10 9 8 8 7 6 5 5 5 5 4 4 5 6 7 8 8 9 10 10 11 11 12 13 13 13 14 15 15 16 16 14 16 14 13 14 14 15
13 12 12 11 11 10 9 8 7 6 5 5 4 4 4 4 5 6 6 7 8 9 9 10 10 11 12 13 13 13 15 16 16 16 16 17 17 17 14 16 15 13 14
13 13 12 12 11 10 9 8 7 6 5 4 3 3 4 5 6 6 7 7 8 9 10 10 11 12 12 12 13 15 17 17 17 16 16 16 16 17 18 16 16 15 17
12 13 13 12 11 10 9 7 6 5 4 3 2 3 4 5 6 6 7 8 8 9 10 11 11 12 11 11 15 17 17 18 18 17 16 16 18 21 19 16 17 18 16
12 12 13 13 12 11 9 7 6 5 3 2 2 3 4 5 6 7 8 9 9 10 10 11 12 13 11 16 21 20 17 17 17 17 17 17 17 19 24 26 26 25 21
11 12 13 12 11 10 8 7 6 5 3 1 2 4 5 6 7 8 9 9 10 11 12 13 13 15 16 19 21 22 19 17 16 17 16 15 15 21 18 23 27 25 27
9 11 11 11 10 9 8 6 5 4 2 1 3 4 6 7 8 9 9 10 10 11 12 13 14 15 15 19 21 24 18 16 16 16 17 18 19 18 22 22 23 22 20
7 9 11 11 11 9 8 6 5 3 0 2 4 5 6 8 9 10 11 11 11 12 13 13 15 16 16 18 21 22 16 14 17 16 17 19 19 24 29 25 24 23 20
8 10 11 11 10 8 7 5 4 2 1 3 5 6 7 8 10 11 11 11 12 12 13 13 14 15 15 17 20 22 13 15 15 15 16 20 22 27 31 25 23 23 22
10 11 11 10 8 8 6 4 2 1 2 4 6 7 8 9 10 11 11 12 12 13 13 14 13 13 14 17 19 21 14 15 16 15 15 15 25 31 33 30 21 24 26
10 10 9 8 7 6 5 3 2 1 3 5 6 8 9 8 8 10 11 12 12 13 14 13 13 10 11 15 18 22 22 22 18 16 15 17 29 33 32 24 24 30 27
9 8 9 8 6 5 3 2 1 2 4 6 7 8 9 9 9 10 11 11 11 11 11 12 12 11 11 13 20 22 25 27 19 16 23 28 31 28 21 22 28 24 15
8 8 8 7 6 5 3 1 1 3 5 7 8 8 9 9 9 8 8 9 10 10 11 12 13 13 12 12 12 14 16 20 18 16 20 26 24 20 21 21 17 13 14
7 7 7 6 6 5 3 1 2 4 6 8 8 8 8 9 9 9 9 10 10 11 14 13 13 14 14 16 26 22 17 17 17 20 15 14 14 14 14 14 14 14 14
8 7 7 6 5 4 2 2 3 5 6 7 7 7 7 8 9 10 10 11 13 17 19 20 19 16 20 27 29 29 29 30 28 21 13 13 14 14 15 15 15 15 14
Wind_Direction
101 87 77 73 72 65 63 63 69 78 92 99 100 95 86 80 72 63 59 56 53 48 43 34 28 17 14 4 354 345 331 325 329 313 308 298 286 291 288 297 300 295 292
124 104 92 80 75 74 72 71 70 72 75 81 83 88 90 78 74 66 56 50 48 43 36 30 22 14 0 358 353 348 331 324 327 321 314 308 307 300 319 306 296 296 296
136 122 106 93 85 77 76 78 78 79 83 90 97 101 98 90 72 59 52 45 43 39 34 25 14 5 357 351 347 344 336 326 323 328 317 315 315 320 296 306 308 304 302
139 130 121 109 96 88 85 83 82 81 81 86 88 88 83 77 64 53 52 50 42 34 25 18 9 1 356 351 346 345 333 328 324 325 318 313 308 307 307 306 307 311 308
148 138 128 118 107 99 93 89 86 81 79 81 84 85 83 81 72 59 47 39 37 32 19 11 5 360 355 352 345 339 337 330 326 323 317 313 309 301 306 307 308 302 299
151 141 134 128 116 109 100 97 93 87 83 82 79 79 80 75 66 51 36 25 23 20 18 4 4 0 356 348 342 336 334 330 326 319 313 312 306 306 305 303 306 304 304
159 154 149 140 130 119 110 107 102 96 90 85 81 80 78 72 57 39 27 18 12 11 6 360 356 356 349 341 338 329 325 320 320 312 311 305 299 300 299 298 301 303 303
166 162 154 145 136 127 122 116 108 102 96 89 85 80 72 62 51 37 24 17 7 3 354 349 345 344 339 334 332 317 316 312 311 309 309 302 300 300 299 299 303 303 302
170 163 155 150 141 134 127 122 115 108 102 97 91 80 68 58 49 34 25 16 6 350 346 341 338 337 334 332 326 315 314 316 313 311 308 304 301 300 300 298 297 298 299
169 163 158 151 141 131 126 123 117 111 105 97 86 76 66 54 41 30 22 9 357 348 340 338 335 332 330 327 322 315 316 315 312 308 305 303 300 302 299 296 293 289 288
170 164 156 148 140 135 134 130 125 120 111 98 88 76 63 46 34 25 12 358 348 342 338 333 328 326 324 323 319 316 316 312 309 307 305 303 303 301 299 297 292 290 289
166 159 153 148 147 145 143 139 135 124 110 95 82 69 54 34 21 16 3 349 342 336 332 325 321 321 320 320 317 314 313 310 308 307 306 304 304 302 300 297 296 294 292
159 157 157 157 156 153 150 146 137 124 110 95 77 62 40 19 10 3 352 341 334 327 325 321 319 318 318 316 312 313 311 308 306 306 305 304 304 302 302 302 299 298 299
163 164 164 164 161 157 153 147 135 125 113 95 70 43 19 6 357 348 338 331 325 320 320 318 315 314 314 310 316 316 311 308 307 304 303 303 303 304 306 302 302 303 302
169 172 172 168 163 158 153 145 137 130 121 105 69 24 359 352 343 336 327 320 315 313 312 310 312 314 312 315 322 315 311 309 306 304 304 303 303 300 300 301 304 304 299
176 176 174 171 166 160 154 149 143 135 133 114 38 4 346 340 333 326 318 312 310 311 311 312 314 314 313 318 315 314 311 307 305 307 307 305 303 303 304 303 302 299 298
174 176 176 172 163 157 153 151 144 141 135 76 9 349 338 329 322 316 310 310 312 313 313 314 315 313 312 315 315 315 311 306 306 307 307 306 305 307 305 305 304 301 297
166 170 168 161 152 145 145 142 141 138 120 21 347 340 329 320 314 310 311 313 313 312 312 313 312 310 310 315 316 316 312 308 306 306 305 304 306 307 309 308 306 302 300
151 155 154 148 143 144 147 148 146 140 126 338 335 330 319 312 311 313 315 315 312 311 311 311 309 309 310 315 316 318 315 308 308 307 305 305 305 308 312 312 308 306 306
129 134 136 137 140 143 149 155 154 177 307 329 321 313 309 308 310 311 311 311 310 308 309 307 308 308 308 312 316 320 313 311 311 308 306 306 308 311 314 314 311 310 311
128 133 136 138 138 141 149 157 175 247 323 311 305 306 309 308 306 305 307 307 307 306 307 308 309 307 308 312 316 320 317 314 312 310 310 310 313 315 316 317 312 310 312
136 140 138 133 134 141 152 169 220 302 307 305 306 307 306 304 301 304 306 308 309 310 311 312 311 310 312 314 316 317 316 314 311 309 309 311 315 317 319 318 313 315 316
146 147 142 137 139 146 164 210 248 310 310 307 304 302 301 300 301 304 308 311 313 312 313 312 313 316 317 315 316 316 316 316 314 308 310 313 316 319 318 315 317 318 313
157 154 151 151 156 161 181 226 309 314 303 298 299 300 302 305 308 307 307 311 313 312 312 313 315 316 315 315 318 317 316 317 315 313 314 316 317 318 317 317 317 315 310
163 163 165 167 164 167 182 224 295 290 287 291 295 300 302 305 307 307 308 309 303 305 309 310 312 312 313 314 316 317 317 317 315 320 317 317 320 319 318 317 316 315 313
163 164 166 162 158 167 196 237 258 267 280 290 299 304 305 307 308 310 307 298 296 302 303 302 303 305 305 310 315 317 318 319 322 324 318 318 318 318 319 318 316 315 314